• In Belarus
  • List of Countries
  • For 7 days
  • Water Temperature
  • Satellite Maps
  • Weather Map
  • Weather Widgets
  • user-avatar
    Login

    Hourly Weather Gjirokaster

    Today, 26 September, Wednesday

    Time Temperature Precipitation Wind Pressure Humidity
    00:00 +6°C° 0 mm 4 mps 657 mmHg 37%
    01:00 +5°C° 0 mm 5 mps 656 mmHg 36%
    02:00 +5°C° 0 mm 4 mps 656 mmHg 38%
    03:00 +4°C° 0 mm 4 mps 656 mmHg 40%
    04:00 +4°C° 0 mm 3 mps 656 mmHg 42%
    05:00 +4°C° 0 mm 4 mps 656 mmHg 43%
    06:00 +4°C° 0 mm 4 mps 656 mmHg 44%
    07:00 +4°C° 0 mm 4 mps 657 mmHg 45%
    08:00 +5°C° 0 mm 4 mps 657 mmHg 44%
    09:00 +7°C° 0 mm 4 mps 658 mmHg 43%
    10:00 +8°C° 0 mm 4 mps 658 mmHg 43%
    11:00 +8°C° 0 mm 4 mps 658 mmHg 43%
    12:00 +10°C° 0 mm 4 mps 658 mmHg 42%
    13:00 +10°C° 0 mm 4 mps 658 mmHg 42%
    14:00 +10°C° 0 mm 4 mps 658 mmHg 41%
    15:00 +10°C° 0 mm 4 mps 658 mmHg 40%
    16:00 +10°C° 0 mm 4 mps 658 mmHg 40%
    17:00 +8°C° 0 mm 4 mps 658 mmHg 42%
    18:00 +6°C° 0 mm 4 mps 658 mmHg 44%
    19:00 +5°C° 0 mm 4 mps 658 mmHg 46%
    20:00 +4°C° 0 mm 3 mps 658 mmHg 46%
    21:00 +4°C° 0 mm 3 mps 658 mmHg 46%
    22:00 +3°C° 0 mm 3 mps 658 mmHg 46%
    23:00 +3°C° 0 mm 3 mps 658 mmHg 47%

    Tomorrow, 27 September, Thursday

    Time Temperature Precipitation Wind Pressure Humidity
    00:00 +2°C° 0 mm 3 mps 658 mmHg 48%
    01:00 +2°C° 0 mm 3 mps 658 mmHg 49%
    02:00 0°C° 0 mm 4 mps 657 mmHg 51%
    03:00 0°C° 0 mm 4 mps 657 mmHg 52%
    04:00 0°C° 0 mm 4 mps 657 mmHg 54%
    05:00 0°C° 0 mm 4 mps 657 mmHg 52%
    06:00 +1°C° 0 mm 4 mps 657 mmHg 50%
    07:00 +3°C° 0 mm 4 mps 657 mmHg 48%
    08:00 +5°C° 0 mm 4 mps 657 mmHg 40%
    09:00 +7°C° 0 mm 4 mps 658 mmHg 31%
    10:00 +10°C° 0 mm 4 mps 658 mmHg 23%
    11:00 +11°C° 0 mm 4 mps 658 mmHg 21%
    12:00 +12°C° 0 mm 4 mps 658 mmHg 20%
    13:00 +13°C° 0 mm 4 mps 658 mmHg 18%
    14:00 +13°C° 0 mm 4 mps 657 mmHg 20%
    15:00 +13°C° 0 mm 4 mps 657 mmHg 21%
    16:00 +13°C° 0 mm 4 mps 656 mmHg 22%
    17:00 +11°C° 0 mm 3 mps 656 mmHg 24%
    18:00 +9°C° 0 mm 3 mps 656 mmHg 27%
    19:00 +8°C° 0 mm 3 mps 655 mmHg 29%
    20:00 +8°C° 0 mm 3 mps 655 mmHg 30%
    21:00 +8°C° 0 mm 3 mps 655 mmHg 30%
    22:00 +8°C° 0 mm 3 mps 655 mmHg 31%
    23:00 +8°C° 0.1 mm 3 mps 655 mmHg 34%

    Day after tomorrow, 28 September, Friday

    Time Temperature Precipitation Wind Pressure Humidity
    00:00 +7°C° 0.1 mm 3 mps 654 mmHg 36%
    01:00 +7°C° 0.1 mm 3 mps 654 mmHg 39%
    02:00 +7°C° 0 mm 3 mps 654 mmHg 39%
    03:00 +7°C° 0 mm 3 mps 653 mmHg 38%
    04:00 +6°C° 0 mm 4 mps 653 mmHg 37%
    05:00 +6°C° 0 mm 4 mps 652 mmHg 38%
    06:00 +7°C° 0 mm 4 mps 652 mmHg 38%
    07:00 +7°C° 0 mm 4 mps 652 mmHg 38%
    08:00 +10°C° 0 mm 4 mps 652 mmHg 36%
    09:00 +13°C° 0 mm 3 mps 653 mmHg 35%
    10:00 +16°C° 0 mm 3 mps 653 mmHg 33%
    11:00 +17°C° 0 mm 3 mps 653 mmHg 33%
    12:00 +18°C° 0 mm 3 mps 653 mmHg 33%
    13:00 +19°C° 0 mm 3 mps 653 mmHg 33%
    14:00 +19°C° 0 mm 3 mps 652 mmHg 34%
    15:00 +18°C° 0 mm 3 mps 652 mmHg 35%
    16:00 +18°C° 0 mm 3 mps 652 mmHg 37%
    17:00 +16°C° 0 mm 3 mps 652 mmHg 40%
    18:00 +14°C° 0 mm 3 mps 651 mmHg 44%
    19:00 +12°C° 0 mm 3 mps 651 mmHg 47%
    20:00 +12°C° 0 mm 3 mps 651 mmHg 49%
    21:00 +11°C° 0 mm 3 mps 651 mmHg 50%
    22:00 +12°C° 0 mm 2 mps 651 mmHg 51%
    23:00 +12°C° 0 mm 2 mps 651 mmHg 53%

    29 September, Saturday

    Time Temperature Precipitation Wind Pressure Humidity
    00:00 +10°C° 0 mm 2 mps 650 mmHg 55%
    01:00 +10°C° 0 mm 2 mps 650 mmHg 56%
    02:00 +10°C° 0 mm 2 mps 650 mmHg 59%
    03:00 +9°C° 0 mm 2 mps 649 mmHg 62%
    04:00 +8°C° 0 mm 2 mps 649 mmHg 65%
    05:00 +9°C° 0 mm 2 mps 649 mmHg 64%
    06:00 +10°C° 0 mm 3 mps 649 mmHg 63%
    07:00 +10°C° 0 mm 3 mps 649 mmHg 62%
    08:00 +13°C° 0 mm 3 mps 650 mmHg 57%
    09:00 +16°C° 0 mm 2 mps 650 mmHg 51%
    10:00 +18°C° 0 mm 2 mps 651 mmHg 45%
    11:00 +19°C° 0 mm 3 mps 651 mmHg 44%
    12:00 +19°C° 0 mm 3 mps 651 mmHg 42%
    13:00 +20°C° 0 mm 3 mps 651 mmHg 40%
    14:00 +20°C° 0 mm 4 mps 651 mmHg 41%
    15:00 +19°C° 0 mm 4 mps 651 mmHg 41%
    16:00 +19°C° 0 mm 5 mps 651 mmHg 42%
    17:00 +17°C° 0 mm 4 mps 650 mmHg 45%
    18:00 +14°C° 0 mm 4 mps 650 mmHg 48%
    19:00 +13°C° 0 mm 4 mps 650 mmHg 52%
    20:00 +12°C° 0 mm 4 mps 650 mmHg 49%
    21:00 +11°C° 0 mm 3 mps 650 mmHg 47%
    22:00 +10°C° 0 mm 3 mps 650 mmHg 44%
    23:00 +10°C° 0 mm 3 mps 650 mmHg 42%

    30 September, Sunday

    Time Temperature Precipitation Wind Pressure Humidity
    00:00 +9°C° 0 mm 3 mps 650 mmHg 40%
    01:00 +9°C° 0 mm 3 mps 650 mmHg 38%
    02:00 +9°C° 0 mm 3 mps 650 mmHg 40%
    03:00 +8°C° 0 mm 3 mps 650 mmHg 42%
    04:00 +8°C° 0 mm 3 mps 650 mmHg 44%
    05:00 +8°C° 0 mm 3 mps 650 mmHg 47%
    06:00 +9°C° 0 mm 3 mps 650 mmHg 49%
    07:00 +10°C° 0 mm 3 mps 650 mmHg 52%
    08:00 +13°C° 0 mm 2 mps 651 mmHg 46%
    09:00 +15°C° 0 mm 2 mps 652 mmHg 41%
    10:00 +18°C° 0 mm 1 mps 652 mmHg 35%
    11:00 +18°C° 0 mm 2 mps 652 mmHg 33%
    12:00 +19°C° 0 mm 2 mps 652 mmHg 31%
    13:00 +19°C° 0 mm 3 mps 652 mmHg 29%
    14:00 +19°C° 0 mm 3 mps 652 mmHg 32%
    15:00 +18°C° 0 mm 3 mps 652 mmHg 35%
    16:00 +17°C° 0 mm 3 mps 652 mmHg 39%
    17:00 +16°C° 0 mm 3 mps 652 mmHg 45%
    18:00 +14°C° 0 mm 2 mps 652 mmHg 52%
    19:00 +12°C° 0 mm 2 mps 652 mmHg 58%
    20:00 +12°C° 0 mm 2 mps 652 mmHg 60%
    21:00 +10°C° 0 mm 2 mps 652 mmHg 61%
    22:00 +10°C° 0 mm 2 mps 652 mmHg 63%
    23:00 +9°C° 0 mm 2 mps 651 mmHg 63%

    1 October, Monday

    Time Temperature Precipitation Wind Pressure Humidity
    00:00 +9°C° 0 mm 2 mps 651 mmHg 64%
    01:00 +9°C° 0 mm 2 mps 651 mmHg 64%
    02:00 +8°C° 0 mm 2 mps 651 mmHg 63%
    03:00 +9°C° 0 mm 1 mps 651 mmHg 62%
    04:00 +9°C° 0 mm 1 mps 650 mmHg 61%
    05:00 +10°C° 0 mm 1 mps 651 mmHg 58%
    06:00 +11°C° 0 mm 1 mps 651 mmHg 55%
    07:00 +11°C° 0 mm 1 mps 651 mmHg 51%
    08:00 +13°C° 0 mm 1 mps 651 mmHg 50%
    09:00 +14°C° 0 mm 2 mps 652 mmHg 48%
    10:00 +16°C° 0 mm 2 mps 652 mmHg 47%
    11:00 +16°C° 0.1 mm 2 mps 652 mmHg 47%
    12:00 +17°C° 0.1 mm 2 mps 652 mmHg 48%
    13:00 +17°C° 0.1 mm 3 mps 651 mmHg 49%
    14:00 +16°C° 0.1 mm 2 mps 651 mmHg 52%
    15:00 +16°C° 0.1 mm 2 mps 651 mmHg 55%
    16:00 +15°C° 0.1 mm 2 mps 651 mmHg 58%
    17:00 +14°C° 0.1 mm 2 mps 651 mmHg 64%
    18:00 +13°C° 0.1 mm 1 mps 650 mmHg 70%
    19:00 +12°C° 0.1 mm 1 mps 650 mmHg 76%
    20:00 +11°C° 0 mm 1 mps 650 mmHg 78%
    21:00 +11°C° 0 mm 1 mps 650 mmHg 80%
    22:00 +10°C° 0 mm 1 mps 651 mmHg 83%
    23:00 +10°C° 0 mm 1 mps 650 mmHg 84%
    Show more